Погода в Казани

Погода в Казани : погода сейчас, прогноз погоды и архив. Всё, что Вы хотите узнать о погоде в Казани!

Хотите узнать прогноз погоды в Казани? Тогда Вам сюда: Погода в Казани

Поиск расширенной информации на нашем сайте:

Другие новости

Новости СМИ2

Главная страница сайта

Новости сайта

03.07.2017

Напоминаем, что на нашем специализированном сайте Метеоцентр.Азия вы можете получить высокодетализированные автоматические прогнозы погоды по пунктам России, СНГ и мира в авиационном формате (включающие направление и скорость ветра, видимость, явления погоды, количество и форму облачности, нижнюю и верхнюю границу облачности).


Погода в Казани - сегодня

Время (UTC), дата Ветер
(°,м/с) 
Видим.   Явления Облачность Т
(°С)
Тd
(°С)
f(%) Тe
(°С)
Pmin
(гПа)
dP
(гПа)
Po
(мм)
O2
(г/м3)
Тmin Tmax R s Состояние
почвы
18 19.08.17 130 (ЮВ) 10 км    3/0 верхняя 
[Ci fib]
+18.7 +9.7 56 +21  1025.3  0.1  758  284           
21 19.08.17 120 (ЮВ) 10 км    ясно 
+17.2 +11.1 67 +21  1025.3  0.1  758  285           
00 20.08.17 тихо ()   10 км    6/0 верхняя 
[Ci sp]
+14.4 +11.6 83 +17  1025.8  0.4  759  288           
03 20.08.17 150 (ЮВ) 10 км    10/0 верхняя 
[Cs]
+15.7 +11.8 78 +20  1025.9  0.1  759  287  +13        сухая 
06 20.08.17 240 (ЮЗ) 10 км    10/0 верхняя 
[Cs]
+21.6 +12.2 55 +26  1025.6  759  281           
09 20.08.17 290 (З) 10 км    10/0 верхняя 
[Cc]
+26 +12.5 43 +30  1024.9  -0.5  758  277           
12 20.08.17 290 (З) 10 км    10/0 верхняя 
[Cc]
+27.1 +13.4 43 +33  1024.4  -0.4  758  275           
15 20.08.17 250 (З) 10 км    10/0 верхняя 
[Cs]
+25.8 +13.8 47 +32  1023.7  -0.7  758  276    +27.3       
18 20.08.17 тихо ()   10 км    10/0 средняя, верхняя 
[Ac lent|Ci fib]
+19.9 +15.4 75 +29  1024.4  -0.7  758  281           
21 20.08.17 тихо ()   10 км    10/0 верхняя 
[Ci fib]
+17.4 +15.1 86 +26  1024.1  -0.5  757  284           
00 21.08.17 тихо ()   10 км    8/0 верхняя 
[Ci fib]
+16.4 +14.8 90 +24  1024.7  0.6  758  285           
03 21.08.17 тихо ()   10 км    ясно 
+17.7 +16.1 90 +28  1024.9  0.3  758  283  +15.8        сухая 
06 21.08.17 270 (З) 10 км    ясно 
+24 +14 54 +31  1024.5  0.1  758  278           
09 21.08.17 280 (З) 10 км    ясно 
+27.2 +13.7 43 +33  1024.2  -0.2  758  275           
12 21.08.17 280 (З) 10 км    ясно 
+28.5 +12.6 37 +33  1023.1  -1  757  274           
15 21.08.17 290 (З) 10 км    ясно 
+27.4 +11.8 38 +31  1022.4  -0.8  757  275    +29.1       
18 21.08.17 тихо ()   10 км    ясно 
+20.2 +14.5 70 +28  1022.7  757  281           
21 21.08.17 тихо ()   10 км    ясно 
+18.6 +14.7 78 +27  1023.1  0.3  757  282           
00 22.08.17 тихо ()   10 км    ясно 
+16.8 +14.2 85 +24  1023.4  0.3  757  284           
03 22.08.17 тихо ()   10 км    ясно 
+19 +15.6 81 +28  1023.6  0.3  757  282  +16.3        сухая 
06 22.08.17 140 (ЮВ) 10 км    ясно 
+25.7 +17.2 59 +38  1023.3  757  275           
09 22.08.17 100 (В) 10 км    6/6 1000 м 
[Cu med, cong]
+28.8 +15 43 +37  1022.3  -0.9  757  273           
12 22.08.17 140 (ЮВ) 10 км    4/4 1000 м 
[Cu med, cong]
+29.1 +12.9 37 +34  1021.3  -1  756  273           
15 22.08.17 100 (В) 10 км    ясно 
+27.2 +11.6 38 +30  1020.5  -0.9  755  275    +29.5       
18 22.08.17 100 (В) 10 км    ясно 
+22.9 +13.2 54 +28  1021  0.3  755  278           
Время (UTC), дата Ветер
(°,м/с) 
Видим.   Явления Облачность Т
(°С)
Тd
(°С)
f(%) Тe
(°С)
Pmin
(гПа)
dP
(гПа)
Po
(мм)
O2
(г/м3)
Тmin Tmax R s Состояние
почвы

Для получения пояснительной информации подведите курсор к названию столбца.

ПОГОДА в Казани - архив

Всё, что Вы хотите узнать о погоде в Казани - удобно и подробно!

Выберите нужную дату (начиная с 1 января 2015* года) и нажмите кнопку "Найти".
Будут отображены архивные сводки погоды по пункту Казань, начиная с указанной даты.


Отображать данные в формате CSV (для использования в таблицах Excel)


Внимание! Наш архив погоды предназначен исключительно для личного некоммерческого использования в познавательных целях. Если Вам необходимы официальные справки о состоянии погоды (для производственных, юридических, коммерческих и т.п. целей), обращайтесь в органы Росгидромета.

*Примечание: данная дата относится к архиву по метеостанциям СССР (Россия, СНГ, Балтия).
Архив по метеостанциям Зарубежной Европы и Азии (кроме Китая) хранится 10 дней, по другим регионам земного шара (Китай, Африка, Америка, Австралия, Океания) - 1 день.

Казань - район местоположения метеостанции


Название, широта, долгота, высота метеостанции:
Казань 55.6°ш. 49.3°д. 116 м над ур. моря [Российская Федерация]

Дополнительная информация

В oтличие oт бoльшинства пoгoдных сайтoв мы публикуем пoдрoбную метеoинфoрмацию в детальнoм прoфессиoнальнoм фoрмате.

Характеристики температуры и влажнoсти вoздуха измеряются на высoте 2 м в тени вдали oт зданий и деревьев.
Скoрoсть ветра измеряется на высoте 10 м (на урoвне рoста челoвека скoрoсть ветра ниже в 1.5-2 раза). Если метеoстанция нахoдится в гoрoде или в лесу, тo скoрoсть ветра занижена на 2-4 м/с пo сравнению с oткрытым местoм. Скoрoсть ветра над акватoриями крупных рек и oзёр, а также на вершинах хoлмoв на 2-5 м/с выше, чем в oбычных услoвиях.
Атмoсфернoе давление в разных тoчках местнoсти мoжет значительнo oтличаться oт давления на метеoстанции, в зависимoсти oт услoвий рельефа (при пoдъёме на 10 м давление пoнижается примернo на 1 мм рт.ст.).